KD8UYA Weather Reports


Display with metric or nautical units.
time (UTC)temp
F
wind
direction
speed
MPH
gust
MPH
rain 1hr
in
rain 24hr
in
rain mn
in
humidity
%
barometer
mb
20260502190023 42 305 4.0 11.0 0.00 0.23 0.17 63 1016.1
20260502184523 42 59 2.0 9.0 0.00 0.23 0.17 66 1016.2
20260502183023 42 30 2.0 6.0 0.00 0.23 0.17 68 1016.3
20260502181524 42 340 1.0 9.0 0.00 0.23 0.17 69 1016.4
20260502163005 38 255 2.0 7.0 0.00 0.28 0.17 87 1016.9
20260502161504 38 59 2.0 6.0 0.00 0.28 0.17 90 1016.8
20260502151612 36 61 2.0 5.0 0.00 0.39 0.17 94 1016.6
20260502150110 36 65 2.0 5.0 0.00 0.39 0.17 95 1016.5
20260502123039 36 45 2.0 6.0 0.01 0.48 0.16 97 1015.6
20260502121545 36 36 1.0 5.0 0.00 0.47 0.15 97 1015.4
20260502114537 35 75 1.0 5.0 0.00 0.47 0.15 97 1015.2
20260502113035 35 90 2.0 5.0 0.00 0.47 0.15 97 1014.9
20260502111534 35 63 1.0 3.0 0.00 0.47 0.15 97 1014.9
20260502110033 35 61 1.0 4.0 0.00 0.47 0.15 97 1015.0
20260502104542 36 29 1.0 3.0 0.00 0.47 0.15 97 1015.0
20260502103032 36 29 0.0 6.0 0.00 0.47 0.15 97 1014.8
20260502101527 36 29 1.0 4.0 0.00 0.47 0.15 96 1014.6
20260502091525 37 102 0.0 0.0 0.02 0.47 0.15 97 1014.3
20260502070016 37 101 0.0 2.0 0.00 0.42 0.10 97 1014.3
20260502064515 37 101 1.0 3.0 0.01 0.42 0.10 96 1014.3
20260502063013 37 101 0.0 0.0 0.01 0.42 0.10 96 1014.4
20260502061512 37 100 2.0 3.0 0.01 0.42 0.10 96 1014.4
20260502060010 37 56 0.0 3.0 0.03 0.42 0.10 96 1014.6
20260502054515 37 56 1.0 2.0 0.05 0.41 0.09 96 1014.8
20260502053006 37 56 2.0 3.0 0.08 0.41 0.09 95 1014.9
20260502051504 37 322 0.0 0.0 0.08 0.41 0.09 95 1015.1
20260502050002 38 322 1.0 3.0 0.07 0.39 0.07 94 1015.3
20260502044608 39 326 1.0 4.0 0.06 0.37 0.05 95 1015.4
20260502043106 39 297 1.0 4.0 0.02 0.33 0.01 94 1015.4
20260502041555 39 10 0.0 3.0 0.02 0.33 0.01 93 1015.3
20260502040053 40 11 1.0 5.0 0.01 0.32 0.00 93 1015.3
20260502034552 40 296 0.0 1.0 0.00 0.31 0.31 94 1015.2
20260502033054 40 296 0.0 0.0 0.00 0.31 0.31 93 1015.0
20260502031606 40 296 0.0 0.0 0.00 0.31 0.31 93 1014.8
20260502030049 40 296 0.0 0.0 0.00 0.31 0.31 93 1014.8
20260502024555 40 296 0.0 0.0 0.00 0.31 0.31 94 1014.7
20260502023047 39 296 0.0 0.0 0.00 0.31 0.31 94 1014.7
20260502021546 39 296 0.0 0.0 0.00 0.31 0.31 93 1014.7
20260502020048 39 296 0.0 0.0 0.00 0.31 0.31 93 1014.6
20260502014543 39 296 0.0 0.0 0.00 0.31 0.31 93 1014.4
20260502013047 39 296 0.0 0.0 0.00 0.31 0.31 92 1014.4
20260502011548 40 296 0.0 1.0 0.00 0.31 0.31 92 1014.3
20260502010042 40 296 0.0 0.0 0.00 0.31 0.31 90 1014.3
20260502004538 40 296 0.0 0.0 0.00 0.31 0.31 88 1014.0
20260502003036 41 296 0.0 0.0 0.00 0.31 0.31 87 1013.7
20260502001533 41 296 0.0 4.0 0.00 0.31 0.31 84 1013.4
20260502000033 42 298 1.0 5.0 0.00 0.31 0.31 83 1013.3
20260501234545 42 279 1.0 7.0 0.00 0.31 0.31 82 1013.2
20260501233031 42 271 1.0 4.0 0.00 0.31 0.31 83 1013.1
20260501231546 42 273 2.0 4.0 0.00 0.31 0.31 83 1013.1
20260501230035 42 275 0.0 4.0 0.00 0.31 0.31 82 1013.1
20260501224530 43 250 1.0 10.0 0.00 0.31 0.31 81 1013.0
20260501223028 43 26 1.0 8.0 0.00 0.31 0.31 85 1012.7
20260501221531 42 44 1.0 8.0 0.00 0.31 0.31 85 1012.6
20260501220028 42 9 2.0 9.0 0.00 0.31 0.31 87 1012.7
20260501214541 41 317 1.0 6.0 0.00 0.31 0.31 89 1012.5
20260501213027 41 27 4.0 9.0 0.00 0.31 0.31 89 1012.5
20260501211526 41 28 4.0 8.0 0.00 0.31 0.31 91 1012.3
20260501210025 40 40 2.0 8.0 0.00 0.31 0.31 93 1012.2
20260501204527 40 18 2.0 9.0 0.00 0.31 0.31 95 1012.0
20260501203024 39 49 3.0 10.0 0.01 0.31 0.31 95 1012.0
20260501201525 39 22 3.0 9.0 0.01 0.31 0.31 95 1011.9
20260501200022 39 22 2.0 8.0 0.01 0.31 0.31 95 1011.9
20260501194520 39 37 2.0 9.0 0.03 0.31 0.31 95 1011.7
20260501193026 40 5 1.0 11.0 0.03 0.30 0.30 95 1011.4
20260501191516 40 26 3.0 10.0 0.03 0.30 0.30 95 1011.3